Flag for Netherlands Weather past 2 weeks in Zaandam, Netherlands

Now
61 °F

Passing clouds.


Feels Like: 61 °F
Forecast: 61 / 72 °F
Wind: 7 mph from East

Location: Amsterdam Schiphol Airport

Current Time: Aug 30, 2015 at 8:07:16 AM

Latest Report: Aug 30, 2015 at 7:25 AM


Visibility: N/A

Pressure: 30.04 "Hg

Humidity: 83%

Dew point: 55 °F

Location of ZaandamLocation

Historic Weather in Zaandam — Graph

°F

Zaandam temperature yesterday

Maximum temperature yesterday: 73 °F (at 3:25 PM)
Minimum temperature yesterday: 52 °F (at 3:25 AM)
Average temperature yesterday: 63 °F

Past Weeks' High & Low Weather Summary

 TemperatureHumidityPressure
High79 °F (Aug 22, 1:55 PM)100% (Aug 17, 4:55 AM)30.21 "Hg (Aug 17, 4:55 AM)
Low52 °F (Aug 29, 3:25 AM)42% (Aug 22, 2:55 PM)29.45 "Hg (Aug 24, 4:25 PM)
Average64 °F79%29.93 "Hg
* Reported Aug 15 6:25 AM — Aug 30 6:55 AM, Zaandam, Weather by CustomWeather, © 2015

Note: Actual official high and low records may vary slightly from our data, if they occured in-between our weather recording intervals... More about our weather records

Advertising

Zaandam weather history for previous 24 hours

 ConditionsComfort  
Time TempWeatherWind HumidityBarometerVisibility
6:55 AM
Sun, Aug 30
63 °FClear.7 mph77%30.07 "Hg10 mi
5:55 AM61 °FClear.12 mph83%30.04 "Hg10 mi
5:25 AM63 °FClear.10 mph77%30.07 "Hg10 mi
4:55 AM61 °FClear.9 mph83%30.07 "Hg10 mi
4:25 AM63 °FPassing clouds.8 mph77%30.07 "HgN/A
3:55 AM61 °FPassing clouds.8 mph83%30.07 "HgN/A
3:25 AM61 °FClear.10 mph83%30.07 "Hg10 mi
2:55 AM63 °FClear.9 mph77%30.09 "Hg10 mi
2:25 AM63 °FPassing clouds.9 mph77%30.09 "HgN/A
1:55 AM61 °FClear.8 mph83%30.09 "Hg10 mi
1:25 AM61 °FClear.7 mph83%30.09 "Hg10 mi
12:55 AM63 °FPassing clouds.6 mph88%30.12 "HgN/A
12:25 AM63 °FLight rain. Passing clouds.6 mph88%30.12 "Hg5 mi
11:55 PM
Sat, Aug 29
63 °FPassing clouds.7 mph88%30.12 "HgN/A
10:55 PM63 °FClear.8 mph77%30.12 "Hg10 mi
10:25 PM63 °FClear.7 mph73%30.12 "Hg10 mi
9:55 PM63 °FClear.7 mph68%30.12 "Hg10 mi
9:25 PM63 °FSunny.6 mph73%30.12 "Hg10 mi
8:55 PM63 °FPassing clouds.6 mph68%30.12 "HgN/A
8:25 PM64 °FSunny.6 mph64%30.09 "Hg10 mi
7:55 PM66 °FPassing clouds.6 mph60%30.12 "HgN/A
7:25 PM68 °FSunny.8 mph56%30.12 "Hg10 mi
6:55 PM68 °FSunny.7 mph60%30.12 "Hg10 mi
6:25 PM70 °FPassing clouds.6 mph53%30.12 "HgN/A
5:55 PM73 °FPassing clouds.3 mph47%30.12 "HgN/A
5:25 PM72 °FPassing clouds.5 mph50%30.12 "HgN/A
4:55 PM72 °FPassing clouds.3 mph47%30.12 "HgN/A
4:25 PM72 °FPassing clouds.5 mph50%30.15 "HgN/A
3:55 PM73 °FPassing clouds.5 mph44%30.15 "HgN/A
3:25 PM73 °FPassing clouds.8 mph47%30.15 "HgN/A
2:55 PM72 °FPassing clouds.8 mph50%30.15 "HgN/A
2:25 PM72 °FPassing clouds.9 mph47%30.15 "HgN/A
1:55 PM72 °FPassing clouds.9 mph50%30.15 "HgN/A
1:25 PM70 °FPassing clouds.8 mph53%30.18 "HgN/A
12:55 PM68 °FPassing clouds.8 mph53%30.18 "HgN/A
11:55 AM68 °FPassing clouds.9 mph53%30.18 "HgN/A
11:25 AM66 °FPassing clouds.9 mph64%30.18 "HgN/A
10:55 AM66 °FPassing clouds.7 mph64%30.18 "HgN/A
10:25 AM64 °FSunny.8 mph64%30.18 "Hg10 mi
9:55 AM64 °FSunny.7 mph68%30.18 "Hg10 mi
9:25 AM63 °FPassing clouds.8 mph77%30.18 "HgN/A
8:55 AM61 °FPassing clouds.7 mph83%30.18 "HgN/A
Weather by CustomWeather, © 2015

See weather overviewHow to use our weather pages